DB0RES-5 Weather Reports


time (UTC)temp
C
wind
direction
speed
KPH
gust
KPH
rain 1hr
cm
rain 24hr
cm
rain mn
cm
humidity
%
barometer
mb
20260502162542 22 131 6.4 11.3 0.00 0.00 0.00 60 1016.5
20260502161539 23 246 4.8 9.7 0.00 0.00 0.00 54 1016.5
20260502160537 24 253 3.2 6.4 0.00 0.00 0.00 51 1016.5
20260502151524 24 243 8.0 14.5 0.00 0.00 0.00 51 1017.0
20260502150521 24 243 3.2 6.4 0.00 0.00 0.00 52 1017.1
20260502130551 23 227 9.7 17.7 0.00 0.00 0.00 52 1018.4
20260502123543 23 204 8.0 12.9 0.00 0.00 0.00 52 1018.7
20260502122540 23 263 8.0 14.5 0.00 0.00 0.00 52 1018.9
20260502121538 23 194 4.8 9.7 0.00 0.00 0.00 52 1018.9
20260502120535 23 195 8.0 17.7 0.00 0.00 0.00 53 1018.9
20260502115533 23 211 4.8 11.3 0.00 0.00 0.00 52 1019.0
20260502114530 23 251 4.8 9.7 0.00 0.00 0.00 53 1019.2
20260502113527 22 226 6.4 11.3 0.00 0.00 0.00 53 1019.4
20260502112525 22 230 4.8 14.5 0.00 0.00 0.00 52 1019.5
20260502111522 22 256 9.7 14.5 0.00 0.00 0.00 54 1019.7
20260502110520 22 218 6.4 14.5 0.00 0.00 0.00 54 1019.7
20260502105517 21 235 8.0 17.7 0.00 0.00 0.00 55 1019.8
20260502104515 22 153 9.7 20.9 0.00 0.00 0.00 54 1019.9
20260502103612 21 214 6.4 17.7 0.00 0.00 0.00 54 1019.9
20260502102610 21 215 4.8 11.3 0.00 0.00 0.00 52 1019.9
20260502101607 21 193 1.6 6.4 0.00 0.00 0.00 52 1020.1
20260502100604 21 250 6.4 11.3 0.00 0.00 0.00 53 1020.1
20260502090549 20 256 4.8 11.3 0.00 0.00 0.00 50 1020.3
20260502071520 16 171 6.4 14.5 0.00 0.00 0.00 57 1020.5
20260502070518 15 181 8.0 11.3 0.00 0.00 0.00 58 1020.6
20260502065515 15 168 6.4 11.3 0.00 0.00 0.00 58 1020.5
20260502064613 15 175 8.0 14.5 0.00 0.00 0.00 58 1020.5
20260502063610 15 174 9.7 17.7 0.00 0.00 0.00 58 1020.5
20260502062608 15 189 6.4 11.3 0.00 0.00 0.00 59 1020.5
20260502061605 15 171 8.0 12.9 0.00 0.00 0.00 60 1020.5
20260502060603 14 150 4.8 11.3 0.00 0.00 0.00 61 1020.6
20260502055600 14 146 9.7 17.7 0.00 0.00 0.00 60 1020.4
20260502054557 14 103 8.0 17.7 0.00 0.00 0.00 61 1020.5
20260502053555 13 175 6.4 11.3 0.00 0.00 0.00 61 1020.5
20260502052552 13 154 6.4 12.9 0.00 0.00 0.00 61 1020.4
20260502051549 13 152 6.4 12.9 0.00 0.00 0.00 61 1020.4
20260502050547 13 164 6.4 11.3 0.00 0.00 0.00 61 1020.4
20260502045544 13 151 6.4 11.3 0.00 0.00 0.00 61 1020.5
20260502044541 13 148 4.8 9.7 0.00 0.00 0.00 61 1020.6
20260502043539 13 189 4.8 9.7 0.00 0.00 0.00 61 1020.5
20260502042536 13 165 6.4 12.9 0.00 0.00 0.00 61 1020.6
20260502041534 13 146 6.4 12.9 0.00 0.00 0.00 61 1020.6
20260502040531 13 117 4.8 11.3 0.00 0.00 0.00 61 1020.6
20260502035529 13 143 4.8 6.4 0.00 0.00 0.00 60 1020.7
20260502034526 13 171 4.8 9.7 0.00 0.00 0.00 60 1020.8
20260502033524 13 145 4.8 9.7 0.00 0.00 0.00 60 1021.0
20260502032521 13 156 6.4 11.3 0.00 0.00 0.00 60 1020.9
20260502031518 13 161 6.4 11.3 0.00 0.00 0.00 60 1021.0
20260502030516 13 147 6.4 11.3 0.00 0.00 0.00 59 1021.2
20260502025613 13 157 6.4 11.3 0.00 0.00 0.00 59 1021.1
20260502024611 13 143 6.4 11.3 0.00 0.00 0.00 58 1021.1
20260502023608 13 166 6.4 11.3 0.00 0.00 0.00 58 1021.2
20260502022606 13 162 6.4 9.7 0.00 0.00 0.00 58 1021.3
20260502021603 13 135 6.4 11.3 0.00 0.00 0.00 58 1021.3
20260502020601 14 177 6.4 9.7 0.00 0.00 0.00 58 1021.4
20260502015558 14 155 6.4 11.3 0.00 0.00 0.00 58 1021.5
20260502014555 14 149 4.8 9.7 0.00 0.00 0.00 58 1021.5
20260502013553 14 125 4.8 9.7 0.00 0.00 0.00 58 1021.5
20260502012550 15 139 6.4 9.7 0.00 0.00 0.00 56 1021.7
20260502011548 15 127 4.8 9.7 0.00 0.00 0.00 56 1021.8
20260502010545 14 135 3.2 6.4 0.00 0.00 0.00 57 1021.9
20260502005543 15 157 3.2 6.4 0.00 0.00 0.00 57 1022.1
20260502004540 15 144 3.2 6.4 0.00 0.00 0.00 56 1022.1
20260502003537 15 161 4.8 6.4 0.00 0.00 0.00 55 1022.2
20260502002535 15 139 4.8 6.4 0.00 0.00 0.00 55 1022.3
20260502001532 15 144 4.8 6.4 0.00 0.00 0.00 54 1022.4
20260502000530 15 158 4.8 6.4 0.00 0.00 0.00 55 1022.4
20260501235527 15 172 4.8 6.4 0.00 0.00 0.00 55 1022.5
20260501234525 15 156 4.8 6.4 0.00 0.00 0.00 55 1022.6
20260501233522 15 158 4.8 9.7 0.00 0.00 0.00 54 1022.7
20260501232519 15 167 3.2 9.7 0.00 0.00 0.00 53 1022.7
20260501231517 15 180 4.8 6.4 0.00 0.00 0.00 54 1022.6
20260501230615 16 211 4.8 6.4 0.00 0.00 0.00 55 1022.7
20260501225612 16 170 3.2 6.4 0.00 0.00 0.00 52 1022.7
20260501224609 16 189 3.2 3.2 0.00 0.00 0.00 51 1022.7
20260501223607 16 144 3.2 6.4 0.00 0.00 0.00 50 1022.8
20260501222604 16 140 3.2 6.4 0.00 0.00 0.00 50 1022.9
20260501221602 17 147 4.8 6.4 0.00 0.00 0.00 48 1022.9
20260501220559 17 149 3.2 6.4 0.00 0.00 0.00 48 1022.9
20260501215556 17 155 4.8 6.4 0.00 0.00 0.00 47 1022.9
20260501214554 17 164 4.8 9.7 0.00 0.00 0.00 46 1022.9
20260501213551 17 131 6.4 9.7 0.00 0.00 0.00 45 1023.0
20260501212549 18 120 6.4 9.7 0.00 0.00 0.00 44 1022.8
20260501211546 18 146 6.4 9.7 0.00 0.00 0.00 43 1022.9
20260501210544 18 132 6.4 9.7 0.00 0.00 0.00 43 1023.0
20260501205541 18 142 6.4 12.9 0.00 0.00 0.00 42 1023.0
20260501204539 18 127 6.4 11.3 0.00 0.00 0.00 42 1023.1
20260501203536 19 130 6.4 9.7 0.00 0.00 0.00 41 1023.1
20260501202533 19 136 6.4 9.7 0.00 0.00 0.00 41 1023.1
20260501201531 19 131 6.4 9.7 0.00 0.00 0.00 40 1023.2
20260501200528 19 135 6.4 9.7 0.00 0.00 0.00 40 1023.2
20260501195526 20 127 4.8 9.7 0.00 0.00 0.00 39 1023.1
20260501194523 20 133 6.4 11.3 0.00 0.00 0.00 39 1023.1
20260501193521 20 124 6.4 9.7 0.00 0.00 0.00 39 1023.1
20260501192518 20 124 4.8 9.7 0.00 0.00 0.00 38 1023.0
20260501191515 20 136 6.4 14.5 0.00 0.00 0.00 37 1023.0
20260501190613 21 130 6.4 9.7 0.00 0.00 0.00 37 1023.0
20260501185610 21 141 4.8 6.4 0.00 0.00 0.00 38 1023.0
20260501184608 21 132 4.8 9.7 0.00 0.00 0.00 37 1023.1
20260501183605 21 137 4.8 9.7 0.00 0.00 0.00 36 1023.1
20260501182603 21 141 6.4 11.3 0.00 0.00 0.00 36 1023.1
20260501181600 21 125 6.4 11.3 0.00 0.00 0.00 36 1023.1
20260501180558 22 133 8.0 11.3 0.00 0.00 0.00 36 1023.0
20260501175555 22 144 6.4 11.3 0.00 0.00 0.00 35 1023.0
20260501174552 22 155 6.4 11.3 0.00 0.00 0.00 35 1023.0
20260501173549 22 145 6.4 11.3 0.00 0.00 0.00 34 1023.0
20260501172546 22 142 6.4 12.9 0.00 0.00 0.00 34 1023.0
20260501171544 22 138 8.0 14.5 0.00 0.00 0.00 33 1023.1
20260501170541 22 132 9.7 17.7 0.00 0.00 0.00 32 1023.0
20260501165539 22 147 9.7 17.7 0.00 0.00 0.00 32 1023.1
20260501164536 22 154 9.7 14.5 0.00 0.00 0.00 32 1023.1